"2016-07-20 00:00:00",1824409,3.437,175.7,1.571,0.171,27.04,110.9763,27.4,28.39,25.68,0,111.3,13.01,28.25,137.7
"2016-07-20 00:00:30",1824410,3.468,174.7,0.615,0.197,27.03,110.9751,27.4,28.39,25.67,0,111.3,13.01,28.25,136.7
"2016-07-20 00:01:00",1824411,3.868,175.5,1.253,0.225,27.04,110.9774,27.41,28.38,25.8,0,111.3,13.01,28.25,137.5
"2016-07-20 00:01:30",1824412,4.01,174.7,0.552,0.121,27.05,110.9688,27.38,28.38,25.86,0,111.3,13.01,28.23,136.7
"2016-07-20 00:02:00",1824413,3.875,174.4,0.422,0.144,27.09,110.9599,27.36,28.37,25.85,0,111.3,13.01,28.21,136.4
"2016-07-20 00:02:30",1824414,3.925,174.3,0.477,0.139,27.06,110.9568,27.35,28.36,25.91,0,111.3,13.01,28.20,136.3
"2016-07-20 00:03:00",1824415,3.705,174.5,1.095,0.319,27.01,110.9523,27.34,28.35,25.93,0,111.3,13.01,28.19,136.5
"2016-07-20 00:03:30",1824416,3.34,174.3,0.906,0.2,26.98,110.9488,27.33,28.34,26.02,0,111.3,13.01,28.18,136.3
"2016-07-20 00:04:00",1824417,3.298,173.9,0.981,0.113,27.01,110.9492,27.33,28.34,26.08,0,111.3,13.01,28.18,135.9
"2016-07-20 00:04:30",1824418,3.249,174.2,0.906,0.145,27,110.9501,27.34,28.34,26.19,0,111.3,13.01,28.18,136.2
"2016-07-20 00:05:00",1824419,3.41,173.6,1.006,0.105,26.96,110.9501,27.34,28.33,26.19,0,111.3,13.01,28.18,135.6
"2016-07-20 00:05:30",1824420,3.203,174.3,0.574,0.111,27,110.9498,27.34,28.32,26.25,0,111.3,13.01,28.18,136.3
"2016-07-20 00:06:00",1824421,3.244,175,0.719,0.116,27.02,110.9498,27.34,28.32,26.36,0,111.3,13.01,28.18,137.0
"2016-07-20 00:06:30",1824422,3.235,176.1,1.106,0.12,27.04,110.9496,27.34,28.31,26.41,0,111.3,13.01,28.18,138.1
"2016-07-20 00:07:00",1824423,3.091,175,1.384,0.242,27.02,110.9479,27.33,28.31,26.18,0,111.3,13.01,28.18,137.0
"2016-07-20 00:07:30",1824424,2.997,173.6,0.829,0.254,27,110.94,27.31,28.3,26.15,0,111.3,13.01,28.16,135.6
"2016-07-20 00:08:00",1824425,2.586,174.8,1.257,0.101,27.03,110.9282,27.28,28.3,26.16,0,111.3,13,28.13,136.8
"2016-07-20 00:08:30",1824426,2.546,175.8,0.673,0.092,27.11,110.9243,27.27,28.29,26.14,0,111.3,13,28.12,137.8
"2016-07-20 00:09:00",1824427,2.509,175.3,1.406,0.07,27.09,110.9218,27.26,28.29,26.13,0,111.3,13,28.11,137.3
"2016-07-20 00:09:30",1824428,2.201,175,1.175,0.105,26.88,110.917,27.25,28.28,26.13,0,111.3,13,28.10,137.0
"2016-07-20 00:10:00",1824429,2.169,176.2,1.714,0.104,26.89,110.9164,27.25,28.28,26.15,0,111.3,13,28.10,138.2
"2016-07-20 00:10:30",1824430,2.103,175.3,1.142,0.078,26.92,110.9164,27.25,28.26,26.14,0,111.3,13,28.10,137.3
"2016-07-20 00:11:00",1824431,1.957,176.4,1.73,0.081,27.08,110.9164,27.25,28.26,26.09,0,111.3,13,28.10,138.4
"2016-07-20 00:11:30",1824432,1.858,175.9,0.995,0.099,27.13,110.9164,27.25,28.26,26.09,0,111.3,13,28.10,137.9
"2016-07-20 00:12:00",1824433,1.788,175,1.029,0.109,27.04,110.9164,27.25,28.25,26.11,0,111.3,13,28.10,137.0
"2016-07-20 00:12:30",1824434,1.76,174.7,0.771,0.074,27.02,110.9164,27.25,28.25,26.1,0,111.3,13,28.10,136.7
"2016-07-20 00:13:00",1824435,1.711,176.8,2.218,0.092,26.99,110.9164,27.25,28.25,26.11,0,111.3,13,28.10,138.8
"2016-07-20 00:13:30",1824436,1.6,176.9,1.397,0.071,26.88,110.9145,27.25,28.24,26.17,0,111.3,13.01,28.09,138.9
"2016-07-20 00:14:00",1824437,1.47,175.3,1.303,0.057,26.85,110.9063,27.22,28.24,26.23,0,111.3,13.01,28.07,137.3
"2016-07-20 00:14:30",1824438,1.496,172.5,1.194,0.077,26.82,110.9044,27.22,28.25,26.22,0,111.3,13.01,28.07,134.5
"2016-07-20 00:15:00",1824439,1.257,172.8,1.403,0.096,27.01,110.9044,27.22,28.23,26.22,0,111.3,13.01,28.07,134.8
"2016-07-20 00:15:30",1824440,0.748,171.9,3.751,0.385,26.86,110.8993,27.21,28.23,26.25,0,111.3,13.01,28.05,133.9
"2016-07-20 00:16:00",1824441,0.057,182.2,8.97,0.124,26.88,110.89,27.18,28.22,26.26,0,111.3,13.01,28.03,144.2
"2016-07-20 00:16:30",1824442,-0.073,185.1,16.69,0.204,26.94,110.8867,27.17,28.22,26.21,0,111.3,13.01,28.02,147.1
"2016-07-20 00:17:00",1824443,-0.153,202.2,22.29,0.088,26.92,110.8836,27.17,28.21,26.27,0,111.3,13.01,28.01,164.2
"2016-07-20 00:17:30",1824444,-0.187,194.5,15.85,0.078,26.93,110.8827,27.16,28.2,26.24,0,111.3,13.01,28.01,156.5
"2016-07-20 00:18:00",1824445,-0.093,143.4,22.35,0.156,26.95,110.8827,27.16,28.19,26.36,0,111.3,13.01,28.01,105.4
"2016-07-20 00:18:30",1824446,0.093,112.6,8.04,0.083,26.97,110.8827,27.16,28.17,26.52,0,111.3,13.01,28.01,74.6
"2016-07-20 00:19:00",1824447,-0.019,84,7.126,0.115,26.96,110.8827,27.16,28.18,26.48,0,111.3,13.01,28.01,46.0
"2016-07-20 00:19:30",1824448,-0.204,92.8,13.62,0.069,26.86,110.8827,27.16,28.17,26.61,0,111.3,13.01,28.01,54.8
"2016-07-20 00:20:00",1824449,-0.173,85.2,32.08,0.079,26.84,110.8827,27.16,28.16,26.69,0,111.3,13.01,28.01,47.2
"2016-07-20 00:20:30",1824450,-0.116,24.56,13.88,0.111,26.72,110.8827,27.16,28.15,27.2,0,111.3,13.01,28.01,346.6
"2016-07-20 00:21:00",1824451,0.566,24.69,14.88,0.425,26.39,110.8673,27.12,28.13,28.16,0,111.3,13.01,27.97,346.7
"2016-07-20 00:21:30",1824452,1.104,11.28,3.982,0.234,26.1,110.8491,27.08,28.12,29.86,0,111.3,13.01,27.92,333.3
"2016-07-20 00:22:00",1824453,0.715,9.4,7.594,0.29,26.14,110.8491,27.08,28.11,30.56,0,111.3,13.01,27.92,331.4
"2016-07-20 00:22:30",1824454,0.54,12.2,14.05,0.392,26.21,110.8491,27.08,28.11,30.56,0,111.3,13.01,27.92,334.2
"2016-07-20 00:23:00",1824455,0.27,28.11,20.61,0.334,26.27,110.8491,27.08,28.1,30.46,0,111.3,13.01,27.92,350.1
"2016-07-20 00:23:30",1824456,0.23,36.22,32.12,0.327,26.33,110.8491,27.08,28.08,30.27,0,111.3,13.01,27.92,358.2
"2016-07-20 00:24:00",1824457,0.286,30.18,30.39,0.396,26.39,110.8375,27.05,28.06,30.24,0,111.3,13.01,27.89,352.2
"2016-07-20 00:24:30",1824458,0.806,16.1,20.81,0.718,26.46,110.817,26.99,28.05,29.63,0,111.3,13.01,27.84,338.1
"2016-07-20 00:25:00",1824459,0.757,18.67,11.24,0.397,26.55,110.816,26.99,28.05,29.54,0,111.3,13.01,27.84,340.7
"2016-07-20 00:25:30",1824460,1.222,26.76,10.37,0.257,26.65,110.8081,26.97,28.05,29.08,0,111.3,13.01,27.82,348.8
"2016-07-20 00:26:00",1824461,1.332,16.64,12.43,0.607,26.7,110.7876,26.92,28,28.71,0,111.3,13.01,27.76,338.6
"2016-07-20 00:26:30",1824462,1.335,16.76,10.29,0.557,26.63,110.7826,26.91,27.99,29.04,0,111.3,13.01,27.75,338.8
"2016-07-20 00:27:00",1824463,0.923,31.3,7.998,0.446,26.67,110.7849,26.91,27.97,29,0,111.3,13.01,27.76,353.3
"2016-07-20 00:27:30",1824464,1.086,11.87,13.9,0.333,26.73,110.7693,26.87,27.96,28.74,0,111.3,13.01,27.72,333.9
"2016-07-20 00:28:00",1824465,0.66,15.01,10.63,0.309,26.72,110.7551,26.84,27.94,28.56,0,111.3,13.01,27.68,337.0
"2016-07-20 00:28:30",1824466,1.049,16.52,9.12,0.464,26.68,110.7579,26.84,27.92,28.63,0,111.3,13.01,27.69,338.5
"2016-07-20 00:29:00",1824467,1.015,13.23,5.471,0.245,26.64,110.7576,26.84,27.89,29.07,0,111.3,13.01,27.69,335.2
"2016-07-20 00:29:30",1824468,1.069,7.598,9.89,0.426,26.7,110.7326,26.78,27.88,28.81,0,111.3,13.01,27.62,329.6
"2016-07-20 00:30:00",1824469,1.898,357,5.86,0.344,26.77,110.732,26.78,27.87,28.5,0,111.3,13.01,27.62,319.0
"2016-07-20 00:30:30",1824470,1.636,353.3,5.05,0.418,26.96,110.7342,26.78,27.84,27.96,0,111.3,13.01,27.63,315.3
"2016-07-20 00:31:00",1824471,1.214,330.5,13.01,0.25,26.93,110.7348,26.78,27.81,27.53,0,111.3,13.01,27.63,292.5
"2016-07-20 00:31:30",1824472,1.392,353.2,6.148,0.355,26.8,110.7182,26.74,27.8,27.61,0,111.3,13.01,27.59,315.2
"2016-07-20 00:32:00",1824473,1.194,347.4,8.49,0.351,26.77,110.7063,26.71,27.8,27.84,0,111.3,13.01,27.55,309.4
"2016-07-20 00:32:30",1824474,1.119,358.8,3.189,0.323,26.64,110.7076,26.71,27.77,28.12,0,111.3,13.01,27.56,320.8
"2016-07-20 00:33:00",1824475,1.736,358.4,4.044,0.43,26.71,110.7083,26.71,27.75,28.03,0,111.3,13.01,27.56,320.4
"2016-07-20 00:33:30",1824476,1.568,349.2,5.702,0.382,26.76,110.7086,26.72,27.74,27.92,0,111.3,13.02,27.56,311.2
"2016-07-20 00:34:00",1824477,1.501,353.3,5.038,0.228,26.72,110.7069,26.71,27.72,27.9,0,111.3,13.02,27.56,315.3
"2016-07-20 00:34:30",1824478,1.527,351.3,4.542,0.178,26.73,110.6983,26.69,27.73,27.94,0,111.3,13.02,27.53,313.3
"2016-07-20 00:35:00",1824479,1.484,357.4,5.487,0.388,26.68,110.6859,26.66,27.71,27.99,0,111.3,13.02,27.50,319.4
"2016-07-20 00:35:30",1824480,0.461,9.81,9.17,0.256,26.63,110.6814,26.65,27.7,28.03,0,111.3,13.02,27.49,331.8
"2016-07-20 00:36:00",1824481,0.806,9.49,14.02,0.545,26.64,110.6786,26.64,27.69,28.12,0,111.3,13.02,27.48,331.5
"2016-07-20 00:36:30",1824482,0.293,23.65,21.21,0.222,26.59,110.6789,26.64,27.68,28.27,0,111.3,13.02,27.48,345.6
"2016-07-20 00:37:00",1824483,0.648,16.94,13.87,0.221,26.68,110.6792,26.64,27.66,28.1,0,111.3,13.02,27.48,338.9
"2016-07-20 00:37:30",1824484,0.752,21.6,10.76,0.296,26.6,110.6817,26.65,27.65,28.04,0,111.3,13.02,27.49,343.6
"2016-07-20 00:38:00",1824485,0.848,25.5,14.92,0.301,26.43,110.6814,26.65,27.63,28.52,0,111.2,13.02,27.49,347.5
"2016-07-20 00:38:30",1824486,0.52,44.21,20.82,0.39,26.39,110.6815,26.65,27.65,28.71,0,111.3,13.02,27.49,6.2
"2016-07-20 00:39:00",1824487,0.596,36.71,7.611,0.323,26.18,110.6765,26.63,27.63,28.96,0,111.3,13.02,27.48,358.7
"2016-07-20 00:39:30",1824488,0.565,30.56,9.5,0.295,25.98,110.6681,26.61,27.61,29.16,0,111.3,13.02,27.46,352.6
"2016-07-20 00:40:00",1824489,0.559,23.22,15.87,0.432,25.95,110.6507,26.57,27.62,29.49,0,111.3,13.02,27.41,345.2
"2016-07-20 00:40:30",1824490,2.013,11.63,5.796,0.43,25.4,110.6505,26.57,27.59,30.99,0,111.3,13.02,27.41,333.6
"2016-07-20 00:41:00",1824491,2.161,11.35,6.063,0.437,25.56,110.6336,26.52,27.58,31.59,0,111.3,13.02,27.37,333.4
"2016-07-20 00:41:30",1824492,1.574,19.45,8.33,0.616,26.19,110.6168,26.48,27.56,30.75,0,111.3,13.02,27.32,341.5
"2016-07-20 00:42:00",1824493,1.375,8.82,6.439,0.278,26.44,110.6033,26.45,27.53,29.72,0,111.3,13.02,27.29,330.8
"2016-07-20 00:42:30",1824494,1.771,24.22,8.6,0.952,26.61,110.5831,26.39,27.49,29.58,0,111.3,13.02,27.24,346.2
"2016-07-20 00:43:00",1824495,1.361,23.21,11.61,0.875,26.72,110.5727,26.37,27.46,29.49,0,111.3,13.02,27.21,345.2
"2016-07-20 00:43:30",1824496,0.69,28.77,12.4,0.467,26.69,110.5497,26.31,27.44,29.49,0,111.3,13.02,27.15,350.8
"2016-07-20 00:44:00",1824497,1.299,19.5,7.893,0.454,26.84,110.5443,26.29,27.39,29.42,0,111.3,13.02,27.14,341.5
"2016-07-20 00:44:30",1824498,1.075,27.22,5.78,0.243,26.87,110.5173,26.22,27.37,29.36,0,111.3,13.02,27.07,349.2
"2016-07-20 00:45:00",1824499,0.409,27.48,19.03,0.437,26.83,110.5157,26.22,27.33,29.36,0,111.3,13.02,27.06,349.5
"2016-07-20 00:45:30",1824500,0,38.64,10.86,0.183,26.82,110.5008,26.18,27.3,29.22,0,111.3,13.02,27.02,0.6
"2016-07-20 00:46:00",1824501,-0.041,34.05,17.32,0.117,26.8,110.482,26.13,27.28,29.29,0,111.3,13.02,26.98,356.0
"2016-07-20 00:46:30",1824502,0.133,34.65,20.76,0.25,26.78,110.482,26.13,27.24,29.33,0,111.3,13.02,26.98,356.6
"2016-07-20 00:47:00",1824503,0.187,62.9,15.7,0.209,26.7,110.4685,26.1,27.2,29.5,0,111.3,13.02,26.94,24.9
"2016-07-20 00:47:30",1824504,0.217,42.26,22.81,0.276,26.7,110.4483,26.05,27.19,29.59,0,111.3,13.02,26.89,4.3
"2016-07-20 00:48:00",1824505,0.319,32.05,15.11,0.396,26.71,110.4477,26.05,27.17,29.64,0,111.3,13.02,26.89,354.0
"2016-07-20 00:48:30",1824506,0.188,31.38,19.79,0.285,26.78,110.4258,25.99,27.13,29.6,0,111.3,13.03,26.83,353.4
"2016-07-20 00:49:00",1824507,0.091,29.56,27.4,0.246,26.85,110.4146,25.96,27.11,29.46,0,111.3,13.03,26.80,351.6
"2016-07-20 00:49:30",1824508,-0.037,60.72,24.15,0.153,26.8,110.4146,25.96,27.09,29.44,0,111.3,13.03,26.80,22.7
"2016-07-20 00:50:00",1824509,0.103,60.34,14.04,0.148,26.79,110.4067,25.94,27.04,29.42,0,111.3,13.03,26.78,22.3
"2016-07-20 00:50:30",1824510,0.082,60.92,18.85,0.173,26.79,110.3896,25.9,27.03,29.36,0,111.3,13.03,26.74,22.9
"2016-07-20 00:51:00",1824511,0.476,52.64,10.49,0.269,26.79,110.3809,25.87,27.01,29.39,0,111.3,13.03,26.72,14.6
"2016-07-20 00:51:30",1824512,0.204,55.15,15.62,0.148,26.65,110.3809,25.87,26.98,29.59,0,111.3,13.03,26.72,17.2
"2016-07-20 00:52:00",1824513,0.525,42.17,12.28,0.179,26.69,110.38,25.87,26.98,29.51,0,111.3,13.03,26.71,4.2
"2016-07-20 00:52:30",1824514,0.489,60.63,6.965,0.261,26.67,110.3741,25.86,26.95,29.61,0,111.3,13.03,26.70,22.6
"2016-07-20 00:53:00",1824515,0.594,64.53,10.88,0.301,26.69,110.3646,25.83,26.93,29.55,0,111.2,13.03,26.67,26.5
"2016-07-20 00:53:30",1824516,0.667,60.7,10.92,0.227,26.65,110.3536,25.8,26.93,29.56,0,111.2,13.03,26.65,22.7
"2016-07-20 00:54:00",1824517,1.026,58.96,6.499,0.235,26.61,110.3488,25.79,26.92,29.6,0,111.2,13.03,26.63,21.0
"2016-07-20 00:54:30",1824518,0.684,61.71,7.641,0.346,26.36,110.3483,25.79,26.91,29.8,0,111.2,13.03,26.63,23.7
"2016-07-20 00:55:00",1824519,1.073,63.37,7.81,0.34,26.33,110.3478,25.79,26.89,29.83,0,111.2,13.03,26.63,25.4
"2016-07-20 00:55:30",1824520,1.393,63.94,8.41,0.556,26.27,110.3487,25.79,26.89,29.93,0,111.2,13.03,26.63,25.9
"2016-07-20 00:56:00",1824521,2.546,54.9,4.186,0.298,25.34,110.3475,25.79,26.89,31.41,0,111.2,13.03,26.63,16.9
"2016-07-20 00:56:30",1824522,2.507,57.75,3.524,0.413,24.92,110.3478,25.79,26.89,33.66,0,111.2,13.03,26.63,19.8
"2016-07-20 00:57:00",1824523,1.932,47.27,4.55,0.414,24.89,110.3503,25.79,26.87,35.96,0,111.2,13.03,26.64,9.3
"2016-07-20 00:57:30",1824524,2.369,48.95,3.517,0.342,25.07,110.3499,25.79,26.88,35.65,0,111.2,13.03,26.64,11.0
"2016-07-20 00:58:00",1824525,2.804,52.23,3.007,0.228,25.25,110.3385,25.76,26.86,35.46,0,111.2,13.03,26.61,14.2
"2016-07-20 00:58:30",1824526,1.05,43.2,9.17,0.495,26.39,110.3215,25.72,26.82,32.16,0,111.2,13.03,26.56,5.2
"2016-07-20 00:59:00",1824527,1.154,27.59,8.96,0.313,26.73,110.3018,25.67,26.8,30.62,0,111.2,13.03,26.51,349.6
"2016-07-20 00:59:30",1824528,1.382,37.55,5.343,0.295,26.79,110.294,25.65,26.76,30.22,0,111.2,13.03,26.49,359.5
"2016-07-20 01:00:00",1824529,1.15,38.14,6.151,0.252,26.81,110.2955,25.65,26.74,30.13,0,111.2,13.02,26.50,0.1
"2016-07-20 01:00:30",1824530,1.545,40.9,3.318,0.339,26.88,110.2887,25.64,26.71,29.95,0,111.2,13.02,26.48,2.9
"2016-07-20 01:01:00",1824531,0.695,35.7,4.472,0.31,26.88,110.2692,25.59,26.69,29.63,0,111.2,13.02,26.43,357.7
"2016-07-20 01:01:30",1824532,0.192,28.15,13.56,0.359,26.84,110.2658,25.58,26.67,29.49,0,111.2,13.02,26.42,350.1
"2016-07-20 01:02:00",1824533,0.081,60.32,33.85,0.179,26.64,110.2671,25.58,26.64,29.6,0,111.2,13.02,26.42,22.3
"2016-07-20 01:02:30",1824534,0.295,60.06,18.78,0.258,26.48,110.2674,25.58,26.63,30.03,0,111.2,13.02,26.42,22.1
"2016-07-20 01:03:00",1824535,0.309,54.37,19.78,0.178,26.51,110.2686,25.58,26.62,29.96,0,111.2,13.02,26.43,16.4
"2016-07-20 01:03:30",1824536,0.267,51.62,13.07,0.238,26.55,110.2733,25.6,26.61,29.88,0,111.2,13.02,26.44,13.6
"2016-07-20 01:04:00",1824537,0.459,54.82,19.92,0.233,26.48,110.2739,25.6,26.59,29.98,0,111.2,13.02,26.44,16.8
"2016-07-20 01:04:30",1824538,0.529,60.29,13.86,0.278,26.25,110.2758,25.6,26.6,30.19,0,111.2,13.02,26.44,22.3
"2016-07-20 01:05:00",1824539,1.006,67.51,8.54,0.313,25.99,110.2789,25.61,26.6,30.68,0,111.2,13.02,26.45,29.5
"2016-07-20 01:05:30",1824540,1.221,65.28,7.901,0.325,25.3,110.2776,25.61,26.59,31.67,0,111.2,13.02,26.45,27.3
"2016-07-20 01:06:00",1824541,1.643,65.39,5.647,0.516,24.66,110.2597,25.56,26.6,33.71,0,111.2,13.03,26.40,27.4
"2016-07-20 01:06:30",1824542,1.738,51.33,10.12,0.53,23.94,110.2305,25.49,26.56,35.51,0,111.2,13.03,26.33,13.3
"2016-07-20 01:07:00",1824543,1.995,53.47,10.5,0.425,24.55,110.1875,25.38,26.54,33.63,0,111.2,13.03,26.22,15.5
"2016-07-20 01:07:30",1824544,2.181,47.13,7.703,0.495,24.84,110.1298,25.23,26.47,32.77,0,111.2,13.03,26.07,9.1
"2016-07-20 01:08:00",1824545,1.747,52.44,10.75,0.844,25.09,110.072,25.08,26.37,32.8,0,111.2,13.03,25.92,14.4
"2016-07-20 01:08:30",1824546,1.598,52.2,7.307,0.534,25.27,110.0279,24.97,26.27,32.68,0,111.2,13.03,25.81,14.2
"2016-07-20 01:09:00",1824547,2.326,40.74,9.69,0.686,25.2,109.9884,24.86,26.19,32.39,0,111.2,13.03,25.70,2.7
"2016-07-20 01:09:30",1824548,2.976,41.47,8.53,0.568,25.22,109.9519,24.77,26.08,32.21,0,111.2,13.03,25.61,3.5
"2016-07-20 01:10:00",1824549,3.178,44.39,7.934,0.571,25.5,109.9191,24.69,26,31.76,0,111.2,13.03,25.52,6.4
"2016-07-20 01:10:30",1824550,2.966,55.44,10.2,0.54,25.71,109.896,24.63,25.91,31.36,0,111.2,13.03,25.47,17.4
"2016-07-20 01:11:00",1824551,2.701,48.36,8.91,0.466,25.79,109.8783,24.58,25.82,31.18,0,111.2,13.03,25.42,10.4
"2016-07-20 01:11:30",1824552,2.157,56.75,10.4,0.967,25.85,109.875,24.57,25.79,31.28,0,111.2,13.03,25.41,18.8
"2016-07-20 01:12:00",1824553,1.842,56.59,12.15,0.871,25.92,109.8724,24.57,25.71,31.31,0,111.2,13.03,25.40,18.6
"2016-07-20 01:12:30",1824554,2.67,58.42,8.39,0.776,26,109.8772,24.58,25.67,31.34,0,111.2,13.03,25.42,20.4
"2016-07-20 01:13:00",1824555,2.993,60.08,6.593,0.528,25.86,109.8786,24.58,25.65,31.31,0,111.2,13.03,25.42,22.1
"2016-07-20 01:13:30",1824556,2.557,60.97,7.633,0.729,25.96,109.8927,24.62,25.65,31.35,0,111.2,13.03,25.46,23.0
"2016-07-20 01:14:00",1824557,2.366,57.51,8.12,0.754,25.97,109.9115,24.67,25.63,31.33,0,111.2,13.03,25.51,19.5
"2016-07-20 01:14:30",1824558,3.248,52.36,6.547,0.654,25.89,109.9149,24.68,25.64,31.29,0,111.2,13.03,25.51,14.4
"2016-07-20 01:15:00",1824559,2.949,54.03,10.56,0.959,25.82,109.939,24.74,25.65,31.29,0,111.2,13.03,25.58,16.0
"2016-07-20 01:15:30",1824560,2.368,52.86,11.26,0.798,25.9,109.946,24.76,25.67,31.22,0,111.2,13.03,25.59,14.9
"2016-07-20 01:16:00",1824561,2.748,41.51,7.34,0.561,25.73,109.9491,24.76,25.68,31.18,0,111.2,13.03,25.60,3.5
"2016-07-20 01:16:30",1824562,2.611,48,8.65,0.478,25.57,109.9643,24.8,25.69,31.19,0,111.2,13.03,25.64,10.0
"2016-07-20 01:17:00",1824563,2.155,47.72,9.97,0.372,25.68,109.9786,24.84,25.71,31.14,0,111.2,13.03,25.68,9.7
"2016-07-20 01:17:30",1824564,2.121,48.36,7.874,0.398,25.58,109.9798,24.84,25.73,31.14,0,111.2,13.03,25.68,10.4
"2016-07-20 01:18:00",1824565,2.202,48.58,14.8,1.096,25.5,109.9798,24.84,25.73,31.31,0,111.2,13.03,25.68,10.6
"2016-07-20 01:18:30",1824566,1.909,55.5,10.67,0.725,25.71,109.9798,24.84,25.74,31.13,0,111.2,13.03,25.68,17.5
"2016-07-20 01:19:00",1824567,2.175,56.33,8.59,0.45,25.45,109.9798,24.84,25.75,31.22,0,111.2,13.03,25.68,18.3
"2016-07-20 01:19:30",1824568,2.294,61.22,9.16,0.596,25.61,109.9784,24.84,25.75,31.16,0,111.2,13.03,25.68,23.2
"2016-07-20 01:20:00",1824569,1.936,59.9,6.713,0.54,25.82,109.9761,24.83,25.75,31.12,0,111.2,13.03,25.67,21.9
"2016-07-20 01:20:30",1824570,1.957,61.85,6.05,0.531,25.83,109.9697,24.82,25.74,31.05,0,111.2,13.02,25.66,23.8
"2016-07-20 01:21:00",1824571,1.714,66.67,7.074,0.368,25.85,109.9722,24.82,25.74,30.91,0,111.2,13.03,25.66,28.7
"2016-07-20 01:21:30",1824572,1.896,65.33,7.037,0.391,25.76,109.9758,24.83,25.75,30.98,0,111.2,13.03,25.67,27.3
"2016-07-20 01:22:00",1824573,2.086,67.5,5.833,0.593,25.74,109.9792,24.84,25.75,30.96,0,111.2,13.03,25.68,29.5
"2016-07-20 01:22:30",1824574,1.812,64.05,6.799,0.344,25.78,109.9798,24.84,25.75,30.95,0,111.2,13.03,25.68,26.1
"2016-07-20 01:23:00",1824575,1.377,64.01,6.347,0.261,25.77,109.9798,24.84,25.74,31,0,111.2,13.03,25.68,26.0
"2016-07-20 01:23:30",1824576,1.066,59.83,9.83,0.291,25.83,109.9798,24.84,25.75,31.04,0,111.2,13.03,25.68,21.8
"2016-07-20 01:24:00",1824577,0.571,54.61,15.97,0.294,25.8,109.9798,24.84,25.75,30.99,0,111.2,13.04,25.68,16.6
"2016-07-20 01:24:30",1824578,0.364,65.39,15.79,0.275,25.79,109.9801,24.84,25.76,31.01,0,111.2,13.04,25.68,27.4
"2016-07-20 01:25:00",1824579,0.675,69.54,18.33,0.38,25.82,109.9804,24.84,25.77,31,0,111.2,13.04,25.68,31.5
"2016-07-20 01:25:30",1824580,3.623,28.68,23.05,2.15,23.91,109.9816,24.85,25.77,32.24,0,111.2,13.04,25.69,350.7
"2016-07-20 01:26:00",1824581,5.894,10.99,5.014,0.601,22.68,109.9521,24.77,25.77,35.78,0,111.2,13.04,25.61,333.0
"2016-07-20 01:26:30",1824582,5.826,2.525,3.839,2.136,22.91,109.9013,24.64,25.71,36.89,0,111.2,13.04,25.48,324.5
"2016-07-20 01:27:00",1824583,9.92,358.6,0.921,1.966,23.03,109.8582,24.53,25.66,37.87,0,111.2,13.04,25.37,320.6
"2016-07-20 01:27:30",1824584,11.73,357.4,1.986,2.052,23.3,109.8191,24.43,25.58,38.68,0,111.2,13.04,25.27,319.4
"2016-07-20 01:28:00",1824585,13.08,356.2,1.843,1.707,23.48,109.7777,24.32,25.5,38.61,0,111.2,13.04,25.16,318.2
"2016-07-20 01:28:30",1824586,14.81,355.3,1.601,0.6,23.8,109.7337,24.21,25.43,37.92,0,111.2,13.04,25.05,317.3
"2016-07-20 01:29:00",1824587,15.2,356.9,1.37,1.464,23.91,109.6755,24.06,25.32,37.2,0,111.2,13.04,24.90,318.9
"2016-07-20 01:29:30",1824588,15.6,355.3,1.115,0.992,24.28,109.614,23.9,25.2,37.71,0,111.2,13.04,24.74,317.3
"2016-07-20 01:30:00",1824589,16.84,353.6,1.604,0.673,24.48,109.5547,23.75,25.07,39.52,0,111.2,13.04,24.59,315.6
"2016-07-20 01:30:30",1824590,18.05,351.8,1.416,0.614,24.62,109.4832,23.57,24.92,41.45,0,111.2,13.04,24.40,313.8
"2016-07-20 01:31:00",1824591,18.11,352.8,1.759,0.933,24.71,109.4143,23.39,24.77,41.52,0,111.2,13.04,24.22,314.8
"2016-07-20 01:31:30",1824592,17.22,353.7,2.884,1.418,24.99,109.3497,23.22,24.61,40.64,0,111.1,13.04,24.06,315.7
"2016-07-20 01:32:00",1824593,16.72,354.4,1.799,1.078,25.03,109.2861,23.06,24.46,40.59,0,111.1,13.04,23.89,316.4
"2016-07-20 01:32:30",1824594,17.48,354.2,2.393,1.576,25.17,109.2304,22.92,24.28,40.24,0,111.1,13.04,23.75,316.2
"2016-07-20 01:33:00",1824595,14.96,352.1,2.641,2.03,26.32,109.1841,22.8,24.15,38.62,0,111.1,13.04,23.63,314.1
"2016-07-20 01:33:30",1824596,13.8,357.1,3.442,1.737,25.63,109.1526,22.72,24.02,39.74,0,111.1,13.04,23.55,319.1
"2016-07-20 01:34:00",1824597,14.77,356.5,1.709,1.383,25.43,109.131,22.66,23.93,40.68,0,111.1,13.04,23.49,318.5
"2016-07-20 01:34:30",1824598,14.46,355,2.133,1.32,26.22,109.1043,22.59,23.85,41.5,0,111.1,13.05,23.42,317.0
"2016-07-20 01:35:00",1824599,13.61,353.6,1.471,0.462,27.61,109.0728,22.51,23.77,40.33,0,111.1,13.04,23.34,315.6
"2016-07-20 01:35:30",1824600,11.02,356.1,2.134,1.596,27.65,109.052,22.46,23.71,39.56,0,111.1,13.04,23.29,318.1
"2016-07-20 01:36:00",1824601,13.57,352.4,2.472,1.375,26.46,109.0275,22.4,23.63,42.48,0,111.1,13.04,23.23,314.4
"2016-07-20 01:36:30",1824602,16.43,353.6,1.187,1.055,26.72,109.002,22.33,23.56,42.2,0,111.1,13.04,23.16,315.6
"2016-07-20 01:37:00",1824603,16.5,354.5,1.955,1.536,26.6,108.9729,22.26,23.5,42.3,0,111.1,13.04,23.09,316.5
"2016-07-20 01:37:30",1824604,15.3,353.4,2.539,1.178,26.38,108.9527,22.2,23.44,42.78,0,111,13.04,23.03,315.4
"2016-07-20 01:38:00",1824605,16.64,352.2,2.131,0.65,26.19,108.9434,22.18,23.38,43.63,0,111,13.04,23.01,314.2
"2016-07-20 01:38:30",1824606,16.15,352.2,1.86,0.713,25.93,108.9317,22.15,23.32,43.11,0,111,13.05,22.98,314.2
"2016-07-20 01:39:00",1824607,16.24,348.1,1.809,0.893,25.35,108.9125,22.1,23.26,45.14,0,111,13.05,22.93,310.1
"2016-07-20 01:39:30",1824608,16.23,348.7,2.498,1.656,25.8,108.9001,22.07,23.22,44.33,0,111,13.05,22.90,310.7
"2016-07-20 01:40:00",1824609,14.12,349.1,2.898,1,26.7,108.874,22,23.15,41.75,0,111,13.05,22.83,311.1
"2016-07-20 01:40:30",1824610,12.28,347,3.949,1.22,26.39,108.8653,21.98,23.09,42.49,0,111,13.05,22.81,309.0
"2016-07-20 01:41:00",1824611,11.21,339.2,2.481,0.936,27.62,108.84,21.92,23.06,38.1,0,111,13.05,22.74,301.2
"2016-07-20 01:41:30",1824612,11.51,341.6,2.853,0.545,27.4,108.8394,21.91,23.02,34.54,0,111,13.05,22.74,303.6
"2016-07-20 01:42:00",1824613,10.75,341.9,2.974,0.49,26.59,108.8394,21.91,22.99,37.98,0,111,13.06,22.74,303.9
"2016-07-20 01:42:30",1824614,8.92,345.2,4.638,0.627,27.02,108.8551,21.95,22.98,35.75,0,111,13.06,22.78,307.2
"2016-07-20 01:43:00",1824615,8.82,342.5,2.813,0.383,27.07,108.8731,22,22.97,34.07,0,111,13.06,22.83,304.5
"2016-07-20 01:43:30",1824616,8.33,343.8,3.181,0.663,26.65,108.8962,22.06,23,35.32,0,111,13.06,22.89,305.8
"2016-07-20 01:44:00",1824617,8.36,341.4,7.361,0.584,26.14,108.9142,22.11,23.05,35.22,0,111,13.06,22.93,303.4
"2016-07-20 01:44:30",1824618,10.64,348.8,4.431,0.756,25.42,108.9415,22.18,23.07,37.13,0,111,13.06,23.01,310.8
"2016-07-20 01:45:00",1824619,8.76,339.9,6.599,1.388,25.85,108.9729,22.26,23.13,37.54,0,110.9,13.06,23.09,301.9
"2016-07-20 01:45:30",1824620,6.464,341.6,6.816,0.661,26.4,109.0053,22.34,23.17,33.76,0,110.9,13.06,23.17,303.6
"2016-07-20 01:46:00",1824621,8.03,330.6,4.727,1.179,25.74,109.0368,22.42,23.24,34.78,0,110.9,13.06,23.25,292.6
"2016-07-20 01:46:30",1824622,8.97,333.5,4.508,0.51,25.24,109.061,22.48,23.3,37.02,0,110.9,13.06,23.31,295.5
"2016-07-20 01:47:00",1824623,8.7,330.3,5.032,0.758,25.8,109.0871,22.55,23.37,35.84,0,111,13.06,23.38,292.3
"2016-07-20 01:47:30",1824624,10.26,331.4,3.542,1.508,25.3,109.1127,22.62,23.43,35.41,0,111,13.06,23.45,293.4